Torna al catalogo

SEMI-1N

AttivoScienzaVLEO
NORAD 66297·PAYLOAD·🇹🇷 Turkey

Lanciato Nov 2, 2025 da Cape Canaveral Space Force Station

Loading…

Prossimi Passaggi (prossime 24 ore)

TLE

AggiornatoSource: Space-Track

Epoca: Sep 14, 2026, 08:22 UTC

1 66297U 25248E   26257.34930184  .00004294  00000-0  19799-3 0  9992
2 66297  45.4061 359.5452 0009591 187.5725 172.5018 15.21800187 48137

Traccia SEMI-1N in tempo reale con AllMySat

Download on the App Store